Other Public Products
Issued by NWS Grand Forks, ND

Home | Current Version | Previous Version | Graphics & Text | Print | Product List | Glossary On
Versions: 1 2 3 4 5 6 7 8 9 10 11 12 13 14 15 16 17 18 19 20 21 22 23 24 25 26 27 28 29 30 31 32 33 34 35 36 37 38 39 40 41 42 43 44 45 46 47 48 49 50
000
FPUS83 KFGF 240431
OPUFGF
PRAIRIE TO PINES WEATHER ROUNDUP
NATIONAL WEATHER SERVICE EASTERN NORTH DAKOTA/GRAND FORKS ND
1000 PM CST FRI FEB 23 2018

 **SATELLITE DATA USED TO AUGMENT SKY COVER AT AUTOMATED STATIONS**
 *****  WEATHER ACROSS EASTERN NORTH DAKOTA  *****

CITY           SKY/WX    TMP DP  RH WIND       PRES   REMARKS
GRAND FORKS    FAIR       4   0  83 SW9       30.22F WCI -10
GRND FORKS AFB FAIR       5   0  79 W7        30.21F WCI  -7
GRND FORKS NWS   N/A      7   4  89 SW5       30.20F WCI  -2
BUXTON           N/A      6   5  98 S9          N/A  WCI  -8
DEVILS LAKE    FAIR       5   1  83 S8        30.15F WCI  -8
FARGO          FAIR       7   3  84 SW10      30.28R WCI  -8
WAHPETON ARPT  FAIR      -6  -9  84 CALM      30.29F
$$

 *****  WEATHER ACROSS CENTRAL AND WESTERN NORTH DAKOTA  *****

CITY           SKY/WX    TMP DP  RH WIND       PRES   REMARKS
JAMESTOWN      FAIR       4   0  83 S9        30.19F WCI -10
BISMARCK       FAIR       5   2  87 E5        30.16F WCI  -4
MINOT          FAIR      13   5  70 S15       30.04F WCI  -3
MINOT AFB      FAIR       4  -1  80 S13         N/A  WCI -13
GARRISON         N/A      2  -1  88 S6        30.08F WCI  -9
WILLISTON      FAIR       4  -1  80 S3        30.00F
DICKINSON      FAIR       3  -5  69 SW12      30.00F WCI -13
HETTINGER      FAIR       5  -4  66 SE8       30.05F WCI  -8
$$

 *****  OTHER OBSERVATIONS NORTHEAST NORTH DAKOTA  *****

CITY           SKY/WX    TMP DP  RH WIND       PRES   REMARKS
WALHALLA       FAIR      10   7  85 SW7       30.14F WCI   0
LANGDON        FAIR       3   1  92 SW17      30.10S WCI -17
CAVALIER         N/A      7   3  85 S8        30.16F WCI  -6
GRAFTON        FAIR       5   1  85 SW10      30.21F WCI -10
CANDO          FAIR       3   1  92 S7        30.14F WCI  -9
FORT TOTTEN      N/A      7   2  82 S6        29.95S WCI  -3
ROLLA          FAIR       3   1  92 S8        30.06S WCI -10
RUGBY          FAIR       5   1  85 S9        30.10F WCI  -9
 ***** THE ABOVE OBSERVATIONS ARE NON NWS ARE NOT QUALITY
        CONTROLLED AND MAY MIS-REPORT RAIN FOR SNOW...
$$

 *****  OTHER OBSERVATIONS SOUTHEAST NORTH DAKOTA *****

CITY           SKY/WX    TMP DP  RH WIND       PRES   REMARKS
COOPERSTOWN    FAIR       5   3  92 SW12      30.19F WCI -11
VALLEY CITY    FAIR       3   3 100 SW10      30.22F WCI -12
OAKES            N/A     -8 -11  84 S8        30.24F WCI -23
GWINNER          N/A     -2  -4  92 SW13      30.24F WCI -21
SHEYENNE NWR     N/A     -4  -7  85 CALM      29.95
BUFFALO          N/A      4   1  84 E7          N/A  WCI  -8
WYNDMERE       NOT AVBL
 ***** THE ABOVE OBSERVATIONS ARE NON NWS ARE NOT QUALITY
       CONTROLLED AND MAY MIS-REPORT RAIN FOR SNOW...
$$

  *****  WEATHER ACROSS NORTHERN MINNESOTA  *****

CITY           SKY/WX    TMP DP  RH WIND       PRES   REMARKS
FLAG ISLAND    FAIR       7   0  72 S3        30.15R
WARROAD        FAIR       5   1  85 S7        30.17S WCI  -7
ROSEAU         FAIR       3  -2  78 S6        30.17S WCI  -8
HALLOCK        FAIR       1  -2  85 S10       30.18S WCI -14
THF RVR FALLS  FAIR       0  -3  87 S8        30.21F WCI -14
HALSTAD        NOT AVBL
FOSSTON        FAIR      -6  -8  92 S7        30.23S WCI -20
BAUDETTE       FAIR       7   2  80 SW5       30.16S WCI  -2
WASKISH        FAIR       9   3  78 SW10      30.19F WCI  -6
CROOKSTON      FAIR       1  -2  85 SW10      30.25R WCI -14
$$
  *****  WEATHER ACROSS CENTRAL AND WEST MINNESOTA  *****

CITY           SKY/WX    TMP DP  RH WIND       PRES   REMARKS
BEMIDJI        FAIR       7   2  82 SW6       30.21R WCI  -4
PARK RAPIDS    FAIR       0  -5  79 W7        30.22S WCI -13
WADENA         FAIR       1   0  92 CALM      30.25S
DETROIT LAKES  FAIR       5   3  92 CALM      30.25S
MOORHEAD       FAIR       3   0  85 S3        30.28F
FERGUS FALLS   FAIR       3   1  92 CALM      30.29F
ELBOW LAKE     FAIR      -5  -8  86 CALM      30.28F
MORRIS MN      FOG       -4  -8  84 CALM      30.28F VSB<1/4
STAPLES        FAIR       1   0  92 W5        30.25F WCI  -8
WHEATON        FAIR      -8 -11  84 CALM      30.31F
$$
  *****  WEATHER ELSEWHERE ACROSS MINNESOTA  *****

CITY           SKY/WX    TMP DP  RH WIND       PRES   REMARKS
DULUTH         FAIR      23  19  85 W7        30.17S WCI  15
INTRNTL FALLS  FAIR      11   4  73 SW7       30.17R WCI   0
ELY            FAIR      18   9  68 W8        30.16R WCI   7
CLOQUET        FAIR      25  18  74 W10       30.19S WCI  15
BRAINERD       FAIR      10   4  76 SW7       30.25S WCI  -1
HIBBING        FAIR      16  10  77 W5        30.18R WCI   9
ALEXANDRIA     FAIR       2   0  91 W5        30.27S WCI  -8
SAINT CLOUD    FAIR      11   8  88 NW6       30.29R WCI   1
MINNEAPOLIS    FAIR      18  15  88 W7        30.30S WCI   9
$$

  *****  WEATHER ACROSS SOUTH DAKOTA  *****

CITY           SKY/WX    TMP DP  RH WIND       PRES   REMARKS
SIOUX FALLS    FOG       16  15  96 N8        30.25F VSB 1/4 WCI   5
BROOKINGS      FOG       12  10  92 N3        30.25F VSB 1/4
WATERTOWN      MOCLDY     0  -3  87 CALM      30.23F FOG
HURON          FOG       -3  -5  90 CALM      30.26F VSB 1/2
SISSETON         N/A      8   4  83 SW6       30.27F WCI  -2
ABERDEEN       FAIR     -10 -12  91 S3        30.27F FOG
MITCHELL       FAIR       5   2  87 CALM      30.27F FOG
PIERRE         FAIR      -4  -6  91 E3        30.19F
MOBRIDGE       FAIR      -1  -6  79 SE8       30.17F WCI -15
RAPID CITY     FAIR      11   2  67 SE13      30.01F WCI  -4
$$

  *****  SOME WEATHER IN NEARBY STATES *****

CITY           SKY/WX    TMP DP  RH WIND       PRES   REMARKS
GLASGOW MT     FAIR       0  -6  76 SE15      29.90F WCI -19
GREAT FALLS MT FAIR      14   3  61 SW20      29.81F WCI  -3
CHEYENNE WY    LGT SNOW  20  19  96 S8        29.87F VSB 1   WCI  10
SCOTTSBLUFF NE FAIR      19  14  81 E3        30.01S
OMAHA NE       CLOUDY    22  19  89 NE10      30.29S WCI  11
DES MOINES IA  CLOUDY    26  21  81 NE6       30.30S WCI  19
DAVENPORT IA   FAIR      31  26  82 W6        30.31R
CHICAGO IL     CLOUDY    34  29  82 NW6       30.26R
EAU CLAIRE WI  FAIR      17  16  95 SW5       30.28R FOG     WCI  10
LA CROSSE WI   NOT AVBL
$$

  *****  SOME NATIONAL WEATHER *****

CITY           SKY/WX    TMP DP  RH WIND       PRES   REMARKS
LA GUARDIA NY  CLOUDY    43  39  86 SW12      30.19F
RALEIGH NC     FAIR      60  56  86 SE7       30.30F
ATLANTA GA     FAIR      68  59  73 SE7       30.26F
NEW ORLEANS LA FAIR      71  70  96 SE7       30.16F
OKLAHOMA CITY  DRIZZLE   38  38 100 N6        30.04F FOG
ALBUQUERQUE NM FAIR      44   6  21 W10       29.89R
SALT LAKE CITY MOCLDY    22  18  85 SW5       30.17R WCI  16
LOS ANGELES CA FAIR      52  20  28 N9G18     30.24R
BOISE ID       CLOUDY    25  14  63 SE5       30.25S WCI  19
SEATTLE WA     CLOUDY    34  32  92 S12       30.15F
$$

*** WEATHER ACROSS MANITOBA...SASKATCHEWAN AND ONTARIO ***
                ***ONTARIO***

CITY           SKY/WX    TMP DP  RH WIND       PRES   REMARKS
GERALDTON      FOG       14  12  92 W3        30.06R VSB 1
THUNDER BAY    PTCLDY    25  19  80 SW6       30.15R WCI  18
SIOUX LOOKOUT  CLEAR      0  -6  78 CALM      30.07S
TORONTO        DRIZZLE   43  39  87 W10G17    30.11R
BIG TROUT LK   CLOUDY    -9 -17  70 SW6       30.02S WCI -23
PICKLE LAKE    NOT AVBL
DRYDEN         CLEAR     14   5  67 SW8       30.08S WCI   3
KENORA         PTCLDY    10   1  67 W7        30.11R WCI   0
$$
                *** MANITOBA***

CITY           SKY/WX    TMP DP  RH WIND       PRES   REMARKS
BRANDON        CLEAR      3  -2  78 SW13      30.03F WCI -14
DAUPHIN        CLEAR     12   5  73 SW13      29.97F WCI  -3
ISLAND LAKE    PTCLDY    12   1  62 SW7       29.95F WCI   2
PILOT MOUND      N/A      1  -2  85 SW8         N/A  WCI -12
THE PAS        MOCLDY    16   3  57 S15       29.76F WCI   1
THOMPSON       CLOUDY    18   5  57 S10G20    29.70F WCI   6
WINNIPEG       CLEAR      9   3  78 SW9       30.13F WCI  -5
LYNN LAKE      PTCLDY    19  12  73 SW14G20   29.51F WCI   6
CHURCHILL      LGT SNOW  -4  -9  77 S20       29.68F BLWGSNOWWCI -27
GILLAM         CLEAR      9  -2  61 S15       29.77F WCI  -8
$$
                ***SASKATCHEWAN***

CITY           SKY/WX    TMP DP  RH WIND       PRES   REMARKS
ESTEVAN        CLEAR      1  -4  78 S7        29.96F WCI -11
KINDERSLEY     PTCLDY     3   0  85 S8        29.61F WCI -10
LLOYDMINSTER   MOCLDY    12   5  73 SW12      29.52S WCI  -2
PRINCE ALBERT  MOCLDY    12   5  73 S13       29.67F WCI  -3
REGINA         CLEAR      5  -2  72 S15       29.83F WCI -13
YORKTON        CLEAR      9   3  78 S16       29.85F W



USA.gov is the U.S. government's official web portal to all federal, state and local government web resources and services.